Wetterdaten: Montag, 12.01.2015
Datum Zeit Temp. A. Feuchte A. Luftdruck Regen Wind Richtung Richtung Sonnenschein ET UV Solar Taupunkt Windchill Windben Empfang
12.01.2015 00:00 2,5 C 63 % 1022,8 hPa 0,0 l/m 7,9 km/h (2 Bft) W-NW 287 0 min 0,000 mm 0,0 UV-I 0 W/m -3,8 C 1,1 C 15,8 km/h (3 Bft) 0,00 %
12.01.2015 00:15 2,3 C 61 % 1023,1 hPa 0,0 l/m 15,8 km/h (3 Bft) W-SW 238 0 min 0,000 mm 0,0 UV-I 0 W/m -4,4 C -4,6 C 19,8 km/h (3 Bft) 0,00 %
12.01.2015 00:30 2,4 C 64 % 1023,0 hPa 0,0 l/m 11,5 km/h (2 Bft) W-SW 255 0 min 0,000 mm 0,0 UV-I 0 W/m -3,7 C -1,9 C 15,8 km/h (3 Bft) 0,00 %
12.01.2015 00:45 2,9 C 62 % 1023,1 hPa 0,0 l/m 1,8 km/h (1 Bft) SW 229 0 min 0,000 mm 0,0 UV-I 0 W/m -3,6 C 2,9 C 4,0 km/h (1 Bft) 0,00 %
12.01.2015 01:00 2,8 C 63 % 1022,9 hPa 0,0 l/m 19,4 km/h (3 Bft) W-NW 285 0 min 0,000 mm 0,0 UV-I 0 W/m -3,5 C -5,8 C 28,1 km/h (4 Bft) 0,00 %
12.01.2015 01:15 2,3 C 63 % 1023,2 hPa 0,0 l/m 5,4 km/h (1 Bft) N-NW 331 0 min 0,000 mm 0,0 UV-I 0 W/m -4,0 C 2,3 C 11,9 km/h (2 Bft) 0,00 %
12.01.2015 01:30 1,9 C 68 % 1023,6 hPa 0,0 l/m 14,4 km/h (3 Bft) W-SW 255 0 min 0,000 mm 0,0 UV-I 0 W/m -3,4 C -4,3 C 19,8 km/h (3 Bft) 0,00 %
12.01.2015 01:45 1,5 C 70 % 1023,8 hPa 0,0 l/m 9,4 km/h (2 Bft) W-SW 256 0 min 0,000 mm 0,0 UV-I 0 W/m -3,4 C -1,3 C 11,9 km/h (2 Bft) 0,00 %
12.01.2015 02:00 1,4 C 72 % 1024,0 hPa 0,0 l/m 0,0 km/h (0 Bft) S 172 0 min 0,000 mm 0,0 UV-I 0 W/m -3,1 C 1,4 C 0,0 km/h (0 Bft) 0,00 %
12.01.2015 02:15 1,6 C 69 % 1024,0 hPa 0,0 l/m 0,4 km/h (0 Bft) O-SO 113 0 min 0,000 mm 0,0 UV-I 0 W/m -3,5 C 1,6 C 4,0 km/h (1 Bft) 0,00 %
12.01.2015 02:30 1,8 C 69 % 1023,9 hPa 0,0 l/m 0,0 km/h (0 Bft) S 173 0 min 0,000 mm 0,0 UV-I 0 W/m -3,3 C 1,8 C 0,0 km/h (0 Bft) 0,00 %
12.01.2015 02:45 1,9 C 68 % 1024,1 hPa 0,0 l/m 5,8 km/h (2 Bft) SW 222 0 min 0,000 mm 0,0 UV-I 0 W/m -3,4 C 1,9 C 11,9 km/h (2 Bft) 0,00 %
12.01.2015 03:00 2,0 C 67 % 1023,9 hPa 0,0 l/m 0,0 km/h (0 Bft) W-SW 256 0 min 0,000 mm 0,0 UV-I 0 W/m -3,5 C 2,0 C 0,0 km/h (0 Bft) 0,00 %
12.01.2015 03:15 2,1 C 67 % 1023,8 hPa 0,0 l/m 2,9 km/h (1 Bft) N 358 0 min 0,000 mm 0,0 UV-I 0 W/m -3,4 C 2,1 C 7,9 km/h (2 Bft) 0,00 %
12.01.2015 03:30 1,9 C 69 % 1024,2 hPa 0,0 l/m 5,4 km/h (1 Bft) N 2 0 min 0,000 mm 0,0 UV-I 0 W/m -3,2 C 1,9 C 15,8 km/h (3 Bft) 0,00 %
12.01.2015 03:45 1,9 C 69 % 1023,9 hPa 0,0 l/m 0,4 km/h (0 Bft) SO 139 0 min 0,000 mm 0,0 UV-I 0 W/m -3,2 C 1,9 C 4,0 km/h (1 Bft) 0,00 %
12.01.2015 04:00 2,0 C 69 % 1024,4 hPa 0,0 l/m 4,0 km/h (1 Bft) S-SW 196 0 min 0,000 mm 0,0 UV-I 0 W/m -3,1 C 2,0 C 7,9 km/h (2 Bft) 0,00 %
12.01.2015 04:15 1,9 C 70 % 1024,5 hPa 0,0 l/m 1,4 km/h (1 Bft) W-SW 245 0 min 0,000 mm 0,0 UV-I 0 W/m -3,0 C 1,9 C 4,0 km/h (1 Bft) 0,00 %
12.01.2015 04:30 1,6 C 72 % 1024,5 hPa 0,0 l/m 0,7 km/h (0 Bft) S 173 0 min 0,000 mm 0,0 UV-I 0 W/m -2,9 C 1,6 C 4,0 km/h (1 Bft) 0,00 %
12.01.2015 04:45 1,5 C 73 % 1024,7 hPa 0,0 l/m 0,0 km/h (0 Bft) O 88 0 min 0,000 mm 0,0 UV-I 0 W/m -2,8 C 1,5 C 0,0 km/h (0 Bft) 0,00 %
12.01.2015 05:00 1,5 C 73 % 1024,5 hPa 0,0 l/m 4,3 km/h (1 Bft) NO 38 0 min 0,000 mm 0,0 UV-I 0 W/m -2,8 C 1,5 C 7,9 km/h (2 Bft) 0,00 %
12.01.2015 05:15 1,7 C 72 % 1024,6 hPa 0,0 l/m 0,4 km/h (0 Bft) S-SW 213 0 min 0,000 mm 0,0 UV-I 0 W/m -2,8 C 1,7 C 4,0 km/h (1 Bft) 0,00 %
12.01.2015 05:30 1,9 C 71 % 1024,7 hPa 0,0 l/m 4,3 km/h (1 Bft) SO 134 0 min 0,000 mm 0,0 UV-I 0 W/m -2,8 C 1,9 C 7,9 km/h (2 Bft) 0,00 %
12.01.2015 05:45 2,1 C 69 % 1024,9 hPa 0,0 l/m 0,4 km/h (0 Bft) S 179 0 min 0,000 mm 0,0 UV-I 0 W/m -3,0 C 2,1 C 4,0 km/h (1 Bft) 0,00 %
12.01.2015 06:00 2,2 C 68 % 1025,0 hPa 0,0 l/m 4,0 km/h (1 Bft) SW 223 0 min 0,000 mm 0,0 UV-I 0 W/m -3,1 C 2,2 C 4,0 km/h (1 Bft) 0,00 %
12.01.2015 06:15 2,4 C 71 % 1025,0 hPa 0,0 l/m 5,4 km/h (1 Bft) W-SW 251 0 min 0,000 mm 0,0 UV-I 0 W/m -2,3 C 2,4 C 11,9 km/h (2 Bft) 0,00 %
12.01.2015 06:30 2,6 C 70 % 1024,8 hPa 0,0 l/m 2,9 km/h (1 Bft) W-SW 256 0 min 0,000 mm 0,0 UV-I 0 W/m -2,3 C 2,6 C 7,9 km/h (2 Bft) 0,00 %
12.01.2015 06:45 2,6 C 70 % 1024,7 hPa 0,0 l/m 2,9 km/h (1 Bft) W-SW 254 0 min 0,000 mm 0,0 UV-I 0 W/m -2,3 C 2,6 C 4,0 km/h (1 Bft) 0,00 %
12.01.2015 07:00 2,5 C 71 % 1025,2 hPa 0,0 l/m 1,4 km/h (1 Bft) SO 133 0 min 0,000 mm 0,0 UV-I 0 W/m -2,2 C 2,5 C 4,0 km/h (1 Bft) 0,00 %
12.01.2015 07:15 2,5 C 70 % 1025,2 hPa 0,0 l/m 0,4 km/h (0 Bft) W-SW 254 0 min 0,000 mm 0,0 UV-I 0 W/m -2,4 C 2,5 C 4,0 km/h (1 Bft) 0,00 %
12.01.2015 07:30 2,5 C 71 % 1025,3 hPa 0,0 l/m 4,0 km/h (1 Bft) W-SW 256 0 min 0,000 mm 0,0 UV-I 0 W/m -2,2 C 2,5 C 7,9 km/h (2 Bft) 0,00 %
12.01.2015 07:45 2,5 C 70 % 1025,5 hPa 0,0 l/m 3,2 km/h (1 Bft) S-SW 197 0 min 0,000 mm 0,0 UV-I 0 W/m -2,4 C 2,5 C 4,0 km/h (1 Bft) 0,00 %
12.01.2015 08:00 2,6 C 69 % 1025,4 hPa 0,0 l/m 3,2 km/h (1 Bft) W-SW 254 0 min 0,000 mm 0,0 UV-I 0 W/m -2,5 C 2,6 C 7,9 km/h (2 Bft) 0,00 %
12.01.2015 08:15 2,7 C 68 % 1025,3 hPa 0,0 l/m 3,2 km/h (1 Bft) W-SW 251 0 min 0,000 mm 0,0 UV-I 0 W/m -2,6 C 2,7 C 7,9 km/h (2 Bft) 0,00 %
12.01.2015 08:30 3,0 C 65 % 1025,1 hPa 0,0 l/m 14,0 km/h (3 Bft) W-SW 256 0 min 0,000 mm 0,0 UV-I 5 W/m -2,9 C -2,8 C 24,1 km/h (4 Bft) 0,00 %
12.01.2015 08:45 3,3 C 62 % 1025,4 hPa 0,0 l/m 4,7 km/h (1 Bft) W-SW 253 0 min 0,000 mm 0,0 UV-I 17 W/m -3,3 C 3,3 C 7,9 km/h (2 Bft) 0,00 %
12.01.2015 09:00 3,6 C 61 % 1025,4 hPa 0,0 l/m 1,4 km/h (1 Bft) S 172 0 min 0,000 mm 0,0 UV-I 17 W/m -3,2 C 3,6 C 4,0 km/h (1 Bft) 0,00 %
12.01.2015 09:15 3,9 C 59 % 1025,6 hPa 0,0 l/m 7,9 km/h (2 Bft) NW 316 0 min 0,000 mm 1,0 UV-I 33 W/m -3,4 C 2,5 C 11,9 km/h (2 Bft) 0,00 %
12.01.2015 09:30 4,2 C 56 % 1025,8 hPa 0,0 l/m 2,9 km/h (1 Bft) W-SW 251 0 min 0,000 mm 1,0 UV-I 49 W/m -3,8 C 4,2 C 7,9 km/h (2 Bft) 0,00 %
12.01.2015 09:45 4,3 C 54 % 1025,6 hPa 0,0 l/m 11,5 km/h (2 Bft) W-SW 251 0 min 0,000 mm 1,0 UV-I 52 W/m -4,2 C 0,3 C 15,8 km/h (3 Bft) 0,00 %
12.01.2015 10:00 4,6 C 54 % 1025,4 hPa 0,0 l/m 4,7 km/h (1 Bft) W-SW 256 0 min 0,000 mm 1,0 UV-I 90 W/m -3,9 C 4,6 C 7,9 km/h (2 Bft) 0,00 %
12.01.2015 10:15 4,7 C 52 % 1025,4 hPa 0,0 l/m 12,2 km/h (2 Bft) NW 308 0 min 0,000 mm 1,0 UV-I 82 W/m -4,3 C 0,3 C 15,8 km/h (3 Bft) 0,00 %
12.01.2015 10:30 4,7 C 53 % 1025,2 hPa 0,0 l/m 5,4 km/h (1 Bft) O-SO 115 0 min 0,000 mm 1,0 UV-I 81 W/m -4,0 C 4,7 C 11,9 km/h (2 Bft) 0,00 %
12.01.2015 10:45 4,8 C 52 % 1024,9 hPa 0,0 l/m 5,4 km/h (1 Bft) W-NW 285 0 min 0,000 mm 1,0 UV-I 105 W/m -4,2 C 4,8 C 11,9 km/h (2 Bft) 0,00 %
12.01.2015 11:00 5,0 C 52 % 1024,8 hPa 0,0 l/m 6,5 km/h (2 Bft) SW 234 15 min 0,000 mm 1,0 UV-I 189 W/m -4,0 C 4,9 C 7,9 km/h (2 Bft) 0,00 %
12.01.2015 11:15 5,3 C 51 % 1024,4 hPa 0,0 l/m 4,0 km/h (1 Bft) W-SW 253 15 min 0,000 mm 1,0 UV-I 199 W/m -4,0 C 5,3 C 7,9 km/h (2 Bft) 0,00 %
12.01.2015 11:30 5,3 C 52 % 1024,5 hPa 0,0 l/m 11,9 km/h (2 Bft) W-NW 290 15 min 0,000 mm 1,0 UV-I 189 W/m -3,7 C 1,2 C 15,8 km/h (3 Bft) 0,00 %
12.01.2015 11:45 5,3 C 51 % 1024,0 hPa 0,0 l/m 9,7 km/h (2 Bft) N 357 0 min 0,000 mm 1,0 UV-I 188 W/m -4,0 C 2,6 C 19,8 km/h (3 Bft) 0,00 %
12.01.2015 12:00 5,3 C 52 % 1023,7 hPa 0,0 l/m 5,8 km/h (2 Bft) S-SW 213 15 min 0,000 mm 1,0 UV-I 200 W/m -3,7 C 5,3 C 7,9 km/h (2 Bft) 0,00 %
12.01.2015 12:15 5,4 C 51 % 1023,7 hPa 0,0 l/m 9,0 km/h (2 Bft) W-SW 255 15 min 0,000 mm 1,0 UV-I 200 W/m -3,9 C 3,2 C 11,9 km/h (2 Bft) 0,00 %
12.01.2015 12:30 5,5 C 51 % 1023,5 hPa 0,0 l/m 14,8 km/h (3 Bft) W-SW 256 15 min 0,000 mm 1,0 UV-I 205 W/m -3,8 C -0,2 C 19,8 km/h (3 Bft) 0,00 %
12.01.2015 12:45 5,4 C 52 % 1023,2 hPa 0,0 l/m 3,2 km/h (1 Bft) NW 309 15 min 0,000 mm 1,0 UV-I 210 W/m -3,7 C 5,4 C 7,9 km/h (2 Bft) 0,00 %
12.01.2015 13:00 5,4 C 53 % 1023,2 hPa 0,0 l/m 1,8 km/h (1 Bft) S-SW 205 15 min 0,000 mm 1,0 UV-I 215 W/m -3,4 C 5,4 C 4,0 km/h (1 Bft) 0,00 %
12.01.2015 13:15 5,3 C 53 % 1023,3 hPa 0,0 l/m 2,9 km/h (1 Bft) W-SW 251 15 min 0,000 mm 1,0 UV-I 220 W/m -3,5 C 5,3 C 7,9 km/h (2 Bft) 0,00 %
12.01.2015 13:30 5,2 C 53 % 1022,7 hPa 0,0 l/m 2,9 km/h (1 Bft) W-SW 256 0 min 0,000 mm 1,0 UV-I 77 W/m -3,6 C 5,2 C 4,0 km/h (1 Bft) 0,00 %
12.01.2015 13:45 5,1 C 53 % 1022,9 hPa 0,0 l/m 4,7 km/h (1 Bft) W-SW 256 0 min 0,000 mm 1,0 UV-I 84 W/m -3,7 C 5,1 C 7,9 km/h (2 Bft) 0,00 %
12.01.2015 14:00 5,3 C 53 % 1022,9 hPa 0,0 l/m 0,7 km/h (0 Bft) S 177 0 min 0,000 mm 1,0 UV-I 119 W/m -3,5 C 5,3 C 4,0 km/h (1 Bft) 0,00 %
12.01.2015 14:15 5,4 C 52 % 1022,7 hPa 0,0 l/m 5,4 km/h (1 Bft) W-SW 251 0 min 0,000 mm 1,0 UV-I 116 W/m -3,7 C 5,4 C 7,9 km/h (2 Bft) 0,00 %
12.01.2015 14:30 5,9 C 51 % 1022,6 hPa 0,0 l/m 1,4 km/h (1 Bft) SW 234 0 min 0,000 mm 1,0 UV-I 115 W/m -3,4 C 5,9 C 4,0 km/h (1 Bft) 0,00 %
12.01.2015 14:45 6,0 C 51 % 1022,4 hPa 0,0 l/m 0,7 km/h (0 Bft) O-SO 108 0 min 0,000 mm 1,0 UV-I 110 W/m -3,4 C 6,0 C 4,0 km/h (1 Bft) 0,00 %
12.01.2015 15:00 5,7 C 52 % 1022,7 hPa 0,0 l/m 0,4 km/h (0 Bft) S-SW 211 0 min 0,000 mm 1,0 UV-I 90 W/m -3,4 C 5,7 C 4,0 km/h (1 Bft) 0,00 %
12.01.2015 15:15 5,7 C 50 % 1022,4 hPa 0,0 l/m 3,2 km/h (1 Bft) W-SW 255 15 min 0,000 mm 1,0 UV-I 90 W/m -3,9 C 5,7 C 7,9 km/h (2 Bft) 0,00 %
12.01.2015 15:30 5,6 C 50 % 1022,4 hPa 0,0 l/m 0,0 km/h (0 Bft) S-SW 212 15 min 0,000 mm 0,0 UV-I 82 W/m -4,0 C 5,6 C 0,0 km/h (0 Bft) 0,00 %
12.01.2015 15:45 5,2 C 52 % 1022,5 hPa 0,0 l/m 0,7 km/h (0 Bft) W-SW 252 0 min 0,000 mm 0,0 UV-I 47 W/m -3,8 C 5,2 C 4,0 km/h (1 Bft) 0,00 %
12.01.2015 16:00 5,0 C 52 % 1022,6 hPa 0,0 l/m 0,0 km/h (0 Bft) S-SW 203 0 min 0,000 mm 0,0 UV-I 24 W/m -4,0 C 5,0 C 0,0 km/h (0 Bft) 0,00 %
12.01.2015 16:15 4,7 C 52 % 1022,9 hPa 0,0 l/m 0,0 km/h (0 Bft) SW 223 0 min 0,000 mm 0,0 UV-I 6 W/m -4,3 C 4,7 C 0,0 km/h (0 Bft) 0,00 %
12.01.2015 16:30 4,5 C 56 % 1022,9 hPa 0,0 l/m 0,0 km/h (0 Bft) SW 226 0 min 0,000 mm 0,0 UV-I 0 W/m -3,5 C 4,5 C 0,0 km/h (0 Bft) 0,00 %
12.01.2015 16:45 3,9 C 60 % 1022,9 hPa 0,0 l/m 0,0 km/h (0 Bft) S 190 0 min 0,000 mm 0,0 UV-I 0 W/m -3,1 C 3,9 C 0,0 km/h (0 Bft) 0,00 %
12.01.2015 17:00 3,6 C 60 % 1022,7 hPa 0,0 l/m 0,0 km/h (0 Bft) S 180 0 min 0,000 mm 0,0 UV-I 0 W/m -3,4 C 3,6 C 0,0 km/h (0 Bft) 0,00 %
12.01.2015 17:15 3,4 C 61 % 1022,8 hPa 0,0 l/m 0,0 km/h (0 Bft) S 186 0 min 0,000 mm 0,0 UV-I 0 W/m -3,4 C 3,4 C 0,0 km/h (0 Bft) 0,00 %
12.01.2015 17:30 3,2 C 61 % 1022,8 hPa 0,0 l/m 0,0 km/h (0 Bft) S-SW 197 0 min 0,000 mm 0,0 UV-I 0 W/m -3,6 C 3,2 C 0,0 km/h (0 Bft) 0,00 %
12.01.2015 17:45 3,0 C 62 % 1023,1 hPa 0,0 l/m 0,0 km/h (0 Bft) S 189 0 min 0,000 mm 0,0 UV-I 0 W/m -3,6 C 3,0 C 0,0 km/h (0 Bft) 0,00 %
12.01.2015 18:00 2,7 C 62 % 1023,0 hPa 0,0 l/m 0,0 km/h (0 Bft) S-SW 207 0 min 0,000 mm 0,0 UV-I 0 W/m -3,8 C 2,7 C 0,0 km/h (0 Bft) 0,00 %
12.01.2015 18:15 2,7 C 62 % 1022,8 hPa 0,0 l/m 0,0 km/h (0 Bft) SW 214 0 min 0,000 mm 0,0 UV-I 0 W/m -3,8 C 2,7 C 0,0 km/h (0 Bft) 0,00 %
12.01.2015 18:30 2,5 C 61 % 1022,6 hPa 0,0 l/m 0,0 km/h (0 Bft) S-SW 194 0 min 0,000 mm 0,0 UV-I 0 W/m -4,2 C 2,5 C 0,0 km/h (0 Bft) 0,00 %
12.01.2015 18:45 2,2 C 60 % 1022,9 hPa 0,0 l/m 0,0 km/h (0 Bft) S-SW 198 0 min 0,000 mm 0,0 UV-I 0 W/m -4,7 C 2,2 C 0,0 km/h (0 Bft) 0,00 %
12.01.2015 19:00 2,0 C 62 % 1022,6 hPa 0,0 l/m 0,0 km/h (0 Bft) S 180 0 min 0,000 mm 0,0 UV-I 0 W/m -4,5 C 2,0 C 0,0 km/h (0 Bft) 0,00 %
12.01.2015 19:15 2,2 C 61 % 1022,6 hPa 0,0 l/m 0,0 km/h (0 Bft) S 188 0 min 0,000 mm 0,0 UV-I 0 W/m -4,5 C 2,2 C 0,0 km/h (0 Bft) 0,00 %
12.01.2015 19:30 2,3 C 61 % 1022,6 hPa 0,0 l/m 0,0 km/h (0 Bft) SW 215 0 min 0,000 mm 0,0 UV-I 0 W/m -4,4 C 2,3 C 0,0 km/h (0 Bft) 0,00 %
12.01.2015 19:45 2,0 C 62 % 1022,6 hPa 0,0 l/m 0,0 km/h (0 Bft) S-SW 200 0 min 0,000 mm 0,0 UV-I 0 W/m -4,5 C 2,0 C 0,0 km/h (0 Bft) 0,00 %
12.01.2015 20:00 1,6 C 65 % 1022,4 hPa 0,0 l/m 0,0 km/h (0 Bft) W-SW 239 0 min 0,000 mm 0,0 UV-I 0 W/m -4,3 C 1,6 C 0,0 km/h (0 Bft) 0,00 %
12.01.2015 20:15 1,8 C 63 % 1022,6 hPa 0,0 l/m 0,0 km/h (0 Bft) SW 223 0 min 0,000 mm 0,0 UV-I 0 W/m -4,5 C 1,8 C 0,0 km/h (0 Bft) 0,00 %
12.01.2015 20:30 1,7 C 63 % 1022,5 hPa 0,0 l/m 0,0 km/h (0 Bft) S-SW 211 0 min 0,000 mm 0,0 UV-I 0 W/m -4,6 C 1,7 C 0,0 km/h (0 Bft) 0,00 %
12.01.2015 20:45 1,5 C 62 % 1022,6 hPa 0,0 l/m 0,0 km/h (0 Bft) W-SW 254 0 min 0,000 mm 0,0 UV-I 0 W/m -5,0 C 1,5 C 0,0 km/h (0 Bft) 0,00 %
12.01.2015 21:00 1,5 C 62 % 1022,7 hPa 0,0 l/m 0,0 km/h (0 Bft) S 179 0 min 0,000 mm 0,0 UV-I 0 W/m -5,0 C 1,5 C 0,0 km/h (0 Bft) 0,00 %
12.01.2015 21:15 1,6 C 60 % 1022,6 hPa 0,0 l/m 1,4 km/h (1 Bft) W-SW 256 0 min 0,000 mm 0,0 UV-I 0 W/m -5,3 C 1,6 C 4,0 km/h (1 Bft) 0,00 %
12.01.2015 21:30 2,0 C 60 % 1022,6 hPa 0,0 l/m 1,4 km/h (1 Bft) O-SO 122 0 min 0,000 mm 0,0 UV-I 0 W/m -4,9 C 2,0 C 4,0 km/h (1 Bft) 0,00 %
12.01.2015 21:45 2,3 C 59 % 1022,7 hPa 0,0 l/m 0,0 km/h (0 Bft) S 174 0 min 0,000 mm 0,0 UV-I 0 W/m -4,9 C 2,3 C 0,0 km/h (0 Bft) 0,00 %
12.01.2015 22:00 2,3 C 59 % 1023,2 hPa 0,0 l/m 0,7 km/h (0 Bft) S 172 0 min 0,000 mm 0,0 UV-I 0 W/m -4,9 C 2,3 C 4,0 km/h (1 Bft) 0,00 %
12.01.2015 22:15 2,3 C 58 % 1022,9 hPa 0,0 l/m 0,0 km/h (0 Bft) SW 217 0 min 0,000 mm 0,0 UV-I 0 W/m -5,1 C 2,3 C 0,0 km/h (0 Bft) 0,00 %
12.01.2015 22:30 2,6 C 60 % 1023,1 hPa 0,0 l/m 0,4 km/h (0 Bft) W-SW 251 0 min 0,000 mm 0,0 UV-I 0 W/m -4,4 C 2,6 C 4,0 km/h (1 Bft) 0,00 %
12.01.2015 22:45 2,5 C 56 % 1023,1 hPa 0,0 l/m 0,7 km/h (0 Bft) W-SW 255 0 min 0,000 mm 0,0 UV-I 0 W/m -5,4 C 2,5 C 4,0 km/h (1 Bft) 0,00 %
12.01.2015 23:00 2,8 C 56 % 1022,9 hPa 0,0 l/m 0,0 km/h (0 Bft) W-SW 250 0 min 0,000 mm 0,0 UV-I 0 W/m -5,1 C 2,8 C 0,0 km/h (0 Bft) 0,00 %
12.01.2015 23:15 2,3 C 55 % 1022,9 hPa 0,0 l/m 0,0 km/h (0 Bft) N-NW 337 0 min 0,000 mm 0,0 UV-I 0 W/m -5,8 C 2,3 C 0,0 km/h (0 Bft) 0,00 %
12.01.2015 23:30 1,7 C 58 % 1023,2 hPa 0,0 l/m 0,0 km/h (0 Bft) S 182 0 min 0,000 mm 0,0 UV-I 0 W/m -5,7 C 1,7 C 0,0 km/h (0 Bft) 0,00 %
_ Min-Zeit 02:00 15:15 14:45 - 02:00 - - - - - - 23:15 01:00 02:00 00:00
Minimum _ 1,4 C 50 % 1022,4 hPa - 0,0 km/h (0 Bft) - - - - - - -5,8 C -5,8 C 0,0 km/h (0 Bft) 0,00 %
_ Max-Zeit 14:45 04:45 09:30 00:00 01:00 - - 11:00 00:00 09:15 13:15 07:00 14:45 01:00 00:00
Maximum _ 6,0 C 73 % 1025,8 hPa 0,0 l/m 19,4 km/h
W-NW (3 Bft)
- - 15 min 0,000 mm 1,0 UV-I 220 W/m -2,2 C 6,0 C 28,1 km/h
W-NW (4 Bft)
0,00 %
Durchschnitt _ 3,2 C 61 % 1023,7 hPa #0,0 l/m 3,2 km/h (1 Bft) W-SW - #2:45 h #0,000 mm 1,0 UV-I 110 W/m -3,7 C 2,6 C 5,9 km/h (2 Bft) 0,00 %